User: anonymous   Login
Location: Unspecified
(0.0000°N, 0.0000°E)
Time: 01:51:19
(UTC+00:00)
Language:

KUIPER-00130 - Orbit

View from above orbital plane
View from above orbital plane
View from above satellite
View from above satellite

Ground track
Ground track

The orbit is defined by the following mean orbital elements,

1 65772U          26145.47819373 +.00000000 +00000-0 +24546-3 0 00004
2 65772  51.9008  51.0394 0001025  88.3145 271.7935 14.79936258    09
Epoch (UTC): 25 May 2026 11:28:35
Eccentricity: 0.0001025
inclination: 51.9008°
perigee height: 629 km
apogee height: 630 km
right ascension of ascending node: 51.0394°
argument of perigee: 88.3145°
revolutions per day: 14.79936258
mean anomaly at epoch: 271.7935°

The dashed part of the orbit path shows where the satellite is in the earth's shadow,  

DLR